Location: Martin
(32.0982°N, 93.2193°W)
Time: 02:19:51
(UTC+00:00)

ARIANE 6 FM1 Upper Stage - Pass Details

Date: 25 September 2024
Orbit: 563 x 594 km, 62.0° (Epoch: 11 October)

Event Time Altitude Azimuth Distance (km) Brightness Sun altitude
Rises 00:51:43 0° 233° (SW) 2,759 7.0 -10.5°
Reaches altitude 10° 00:54:07 10° 244° (WSW) 1,871 6.3 -11.0°
Maximum altitude 00:57:53 31° 307° (NW) 1,028 4.7 -11.8°
Drops below altitude 10° 01:01:42 10° 10° (N) 1,899 5.3 -12.6°
Sets 01:04:10 0° 21° (NNE) 2,808 6.1 -13.1°
